1st Responders/1st Detectors/Storm Spotters Weather Summary for Boyle County, KY

Forecast Maps


Reg. NEXRAD Animation


National Fire Danger: Day 1 & 2 Map

Current NWS Watch/Warnings

SPC Convective Day 1 Outlook


Day 2 Outlook

(Click images to enlarge|Page will refresh every 5 minutes)
UK Ag. Weather Center Desktop Severe Weather Service[HERE]
Boyle County, KY Hazardous Weather Outlook Webcast
(9 AM to 9 PM Mon-Fri)
[Fast]
[Dial-up]


UKAWC 1st Detectors/1st Responders Precision Weather Forecast For BOYLE County, Kentucky
(based on the NWS County Digital Forecast)

ISSUED AT 22:00 UTC ON SUNDAY JUL 22 2018
DAY SUNDAY MONDAY
EDT 3HR 7P 8P 9P 10P 11P MIDN 1A 2A 3A 4A 5A 6A 7A 8A 9A 10A 11A NOON 1P 2P 3P 4P 5P 6P 7P
MAX/MIN 74° -- -- -- -- -- -- -- -- -- -- -- -- 63° -- -- -- -- -- -- -- -- -- -- 77°
TEMP 72° 72° 70° 68° 67° 67° 65° 65° 65° 65° 65° 65° 63° 63° 65° 67° 68° 72° 72° 74° 76° 76° 77° 77° 77°
SKY COVER 85% 86% 86% 86% 87% 89% 90% 92% 93% 95% 96% 96% 96% 96% 96% 96% 96% 93% 90% 88% 85% 81% 78% 74% 69%
Clouds
DEW PT 68° 67° 67° 67° 67° 67° 65° 65° 65° 65° 65° 65° 63° 63° 65° 65° 65° 65° 65° 67° 67° 67° 67° 67° 67°
RH 87% 87% 93% 96% 96% 99% 100% 99% 100% 100% 99% 100% 99% 99% 99% 96% 89% 81% 78% 76% 73% 71% 68% 68% 69%
POP 12HR -- 73% -- -- -- -- -- -- -- -- -- -- -- 44% -- -- -- -- -- -- -- -- -- -- --
RAIN/SNOW (liq.equ) -- 0.20in -- -- -- -- -- 0.02in -- -- -- -- -- 0.00in -- -- -- -- -- 0.00in -- -- -- -- --
SNOWFALL -- 0in -- -- -- -- -- 0in -- -- -- -- -- 0in -- -- -- -- -- 0in -- -- -- -- --
WIND SPEED(MPH) 7 7 6 6 5 5 5 5 5 6 6 6 6 6 6 6 6 6 6 6 6 7 7 7 6
WIND Gust(MPH) 9 8 7 7 7 6 6 7 7 7 7 7 7 7 7 7 7 7 7 7 8 8 8 8 7
WIND DIR NW NW NW NW NW NW N N N N N N N N N N N N N N N N N N N
DEW Mod Dew Mod Dew Mod Dew Mod Dew Mod Dew Mod Dew Mod Dew -- -- -- -- -- -- -- -- -- -- -- Lgt Dew Lgt Dew Lgt Dew Lgt Dew -- -- --
HeatIndex 72 72 70 68 67 67 65 65 65 65 65 65 63 63 65 67 68 72 72 74 76 76 77 77 77
Rain Showers Chance Chance Chance Chance Slight Chance Slight Chance Slight Chance Slight Chance Slight Chance Slight Chance Slight Chance Slight Chance Slight Chance Slight Chance Slight Chance Slight Chance Slight Chance Slight Chance Slight Chance Chance Chance Chance Chance Chance Chance
Thunder Storm Slight Chance Slight Chance -- -- -- -- -- -- -- -- -- -- -- -- -- -- -- -- -- Slight Chance Slight Chance Slight Chance Slight Chance Slight Chance Slight Chance
WIND CHILL -- -- -- -- -- -- -- -- -- -- -- -- -- -- -- -- -- -- -- -- -- -- -- -- --
SPRAY COND
DRY COND
LIVESTOCK HEATSTRESS 71.06 71.06 69.57 67.80 66.82 66.95 65.00 64.97 65.00 65.00 64.97 65.00 62.98 62.98 64.97 66.82 67.44 70.62 70.40 71.99 73.45 73.26 73.80 73.80 73.90



DAY TUESDAY WEDNESDAY THURSDAY FRIDAY SATURDAY SUNDAY
EDT 6HR 8P 9P 10P 11P MIDN 1A 2A 3A 4A 5A 6A 8A 11A 2P 5P 8P 11P 2A 5A 8A 11A 2P 5P 8P 2A 8A 2P 8P 2A 8A 2P 8P 2A 8A 2P 8P 2A 8A 2P 8P
MAX/MIN -- -- -- -- -- -- -- -- -- -- -- 65° -- -- 81° -- -- -- -- 67° -- -- 83° -- -- 65° 85° -- -- 65° 85° -- -- 65° 83° -- -- 67° 83° --
TEMP 76° 74° 72° 68° 67° 67° 65° 65° 65° 65° 65° 67° 76° 81° 81° 77° 72° 68° 67° 68° 77° 83° 83° 79° 67° 67° 85° 81° 68° 68° 83° 79° 67° 67° 83° 77° 68° 68° 81° 76°
SKY COVER 65% 63% 60% 59% 61% 67% 69% 70% 72% 74% 75% 80% 81% 76% 76% 75% 70% 66% 65% 73% 66% 63% 62% 44% 26% 19% 22% 26% 37% 50% 39% 43% 57% 56% 57% 64% 68% 74% 71% 74%
Clouds
DEW PT 67° 67° 67° 67° 67° 65° 65° 65° 65° 65° 65° 65° 67° 70° 70° 70° 68° 67° 67° 67° 70° 70° 70° 70° 67° 67° 67° 68° 65° 65° 65° 65° 63° 63° 65° 67° 65° 67° 68° 67°
RH 76% 81% 83% 93% 96% 96% 100% 100% 99% 100% 100% 93% 75% 67% 66% 76% 90% 96% 99% 97% 76% 66% 65% 71% 99% 100% 57% 67% 90% 90% 54% 62% 86% 86% 56% 69% 90% 93% 64% 74%
POP 12HR 33% -- -- -- -- -- -- -- -- -- -- 15% -- -- -- 46% -- -- -- 30% -- -- -- 49% -- 18% -- 5% -- 5% -- 10% -- 13% -- 13% -- 33% -- 44%
RAIN/SNOW (liq.equ) 0.05in -- -- -- -- -- 0.00in -- -- -- -- 0.00in -- 0.01in -- 0.09in -- 0.03in -- 0.02in -- 0.05in -- 0.08in -- -- -- -- -- -- -- -- -- -- -- -- -- -- -- --
SNOWFALL 0in -- -- -- -- -- 0in -- -- -- -- 0in -- 0in -- 0in -- 0in -- 0in -- 0in -- 0in -- -- -- -- -- -- -- -- -- -- -- -- -- -- -- --
WIND SPEED(MPH) 5 5 2 2 2 2 2 2 1 1 1 1 2 5 6 2 2 1 1 1 5 5 6 2 1 2 6 5 2 2 6 5 2 5 5 5 2 2 5 6
WIND DIR N N N N N N N N N NW N N N N N N N N NW NW N NW N N W W W NW W NW NW NW N E W W SE S SW SW
HeatIndex 76 74 72 68 67 67 65 65 65 65 65 67 76 85 85 77 72 68 67 68 77 87 87 83 67 67 88 84 68 68 86 82 67 67 85 77 68 68 85 76
Rain Showers Slight Chance Slight Chance Slight Chance Slight Chance Slight Chance Slight Chance -- -- -- -- -- Chance Chance Chance Chance Chance Chance Slight Chance Slight Chance Chance Chance Chance Chance Slight Chance -- -- -- -- -- -- -- -- -- -- -- Slight Chance Chance Chance Chance Chance
Thunder Storm -- -- -- -- -- -- -- -- -- -- -- Chance Chance Chance Chance -- -- Slight Chance Slight Chance Chance Chance Chance Chance -- -- -- -- -- -- -- -- -- -- -- -- Slight Chance Slight Chance Slight Chance Slight Chance Slight Chance
WIND CHILL -- -- -- -- -- -- -- -- -- -- -- -- -- -- -- -- -- -- -- -- -- -- -- -- -- -- -- -- -- -- -- -- -- -- -- -- -- -- -- --
SPRAY COND
DRY COND
LIVESTOCK HEATSTRESS 73.73 72.41 70.77 67.65 66.82 66.82 65.00 65.00 64.97 65.00 65.00 66.68 73.64 76.97 76.85 74.60 71.27 67.80 66.95 67.85 74.60 78.47 78.34 75.78 66.95 67.00 78.80 76.97 67.49 67.49 76.88 74.78 66.37 66.37 77.14 73.90 67.49 67.65 76.60 73.54

Click on individual weather variable above in left-hand column (ie., TEMP, RH, QPF 12HR) to view state forecast maps






NWS 48 Hr. Forecast Maps,

Regional Hourly Observations For BOYLE County, Kentucky
Issued at 600 PM EDT SUN JUL 22 2018
NORTHEAST KENTUCKY
  
CITY           SKY/WX    TMP DP  RH WIND       PRES   REMARKS
LEXINGTON      CLOUDY    75  68  78 NW3       29.74R                  
COVINGTON      FAIR      80  67  64 NE14      29.74R                  
FRANKFORT      PTSUNNY   78  68  71 NE3       29.73R                  


Current NOWCAST not available:
Nowcasts are not issued routinely during fair weather. Only when
precipitation or other significant weather is occuring in this county will these
forecasts be issued. Currently, there is no short term forecast in effect.


Fire Weather Forecast For BOYLE County, KY
Provided by the National Weather Service:

Issued at: Sun Jul 22 18:05:01 EDT 2018


                      Today        Tonight      Mon          

CLOUD COVER           MCldy        MCldy        MCldy        
PRECIP TYPE           tstms        tstms        tstms        
CHANCE PRECIP (%)     60           60           50           
TEMP (24H TREND)      78 (-4)      65 (-1)      82           
RH % (24H TREND)      68 (+8)      100 (+1)     63           
20FTWND-VAL/AM(MPH)   W  6                      Lgt/Var      
20FTWND-RDG/PM(MPH)   W  6         Lgt/Var      Lgt/Var      
PRECIP AMOUNT         0.23         0.11         0.06         
MIXING HGT(FT-AGL/MSL)3826                      4257         
TRANSPORT WND (MPH)   W 13                      N  9         
VENT RATE (KT-FT)     53564                     34587        
DISPERSION            Good                      Marginal     
DSI                   SLGT UNSTBL  SLGT UNSTBL  STBL         
LAL                   3            2            3            
HAINES INDEX          3            3            3            
ADI EARLY             24 FAIR      5 VERY POOR  10 POOR      
ADI LATE              28 FAIR      1 VERY POOR  22 FAIR      
MAX LVORI EARLY       6            8            9            
MAX LVORI LATE        3            10           4            

REMARKS...ADI IS ATMOSPHERIC DISPERSION INDEX BY LAVDAS.        
LVORI IS LOW VISIBILITY OCCURRENCE RISK INDEX.

.TUESDAY...Mostly cloudy with a 50 percent chance of showers and
thunderstorms. Lows in the mid 60s. Highs in the mid 80s. Light
winds. 
.WEDNESDAY...Mostly cloudy. A 50 percent chance of showers and
thunderstorms. Lows in the upper 60s. Highs in the mid 80s. North
winds up to 5 mph. 
.THURSDAY...Partly cloudy. Lows in the upper 60s. Highs in the
upper 80s. Northwest winds up to 5 mph. 
.FRIDAY...Partly cloudy. Lows in the upper 60s. Highs in the mid
80s. North winds up to 5 mph. 
.SATURDAY...Mostly cloudy. Chance of showers. Lows in the mid
60s. Highs in the mid 80s. Northwest winds up to 5 mph. 

SPC's Fire Weather Web Tool (Excellent!), SPC's Fire Weather Outlooks, NWS Fire Weather WEB, Fire Danger Class Map,
Keetch-Byram Drought Index, ROMAN Web, Haines Index ,
WFAS's 10-hr Dead Fuel Moist., WFAS's 100-hr Dead Fuel Moist., Probablity of Ignition, Visual blackness Map, Palmer Drought Index, HPC's Rainfall Forecast Maps


Hazardous Weather Outlook For BOYLE County, Kentucky
305 PM EDT Sun Jul 22 2018 /205 PM CDT Sun Jul 22 2018/

 DAY ONE  Tonight.

No hazardous weather is expected. 

 DAYS TWO THROUGH SEVEN  Monday through Saturday.

Isolated to scattered afternoon and evening storms are expected most
of next week as the weather pattern remains unsettled.

 SPOTTER INFORMATION STATEMENT  

Spotter activation is not anticipated.

Latest BOYLE County, Kentucky Watches, Warnings and Advisories.
Additional Drought Info.: UKAWC Drought Page, Kentucky Drought Watch


7-Day Forecast For BOYLE County, KY

TONIGHT
Cloudy. Showers likely and slight chance of thunderstorms in the evening, then slight chance of showers after midnight. Lows in the mid 60s. Northwest winds 5 to 10 mph. Chance of precipitation 60 percent.

MONDAY
Cloudy with chance of showers and slight chance of thunderstorms. Highs in the upper 70s. North winds around 5 mph. Chance of precipitation 40 percent.

MONDAY NIGHT
Partly cloudy with a 20 percent chance of showers. Lows in the mid 60s. North winds up to 5 mph.

TUESDAY
Mostly cloudy with a 50 percent chance of showers and thunderstorms. Highs in the lower 80s. North winds up to 5 mph.

TUESDAY NIGHT
Partly cloudy with chance of showers and slight chance of thunderstorms. Lows in the upper 60s. North winds up to 5 mph. Chance of precipitation 50 percent.

WEDNESDAY
Partly cloudy with a 50 percent chance of showers and thunderstorms. Highs in the mid 80s.

WEDNESDAY NIGHT
Partly cloudy with a 20 percent chance of showers. Lows in the mid 60s.

THURSDAY
Mostly sunny. Highs in the mid 80s.

THURSDAY NIGHT
Partly cloudy. Lows in the mid 60s.

FRIDAY
Partly cloudy. Highs in the mid 80s.

FRIDAY NIGHT
Partly cloudy. Lows in the mid 60s.

SATURDAY
Partly cloudy with a 20 percent chance of showers and thunderstorms. Highs in the mid 80s.

SATURDAY NIGHT
Partly cloudy with chance of showers and slight chance of thunderstorms. Lows in the upper 60s. Chance of precipitation 40 percent.

SUNDAY
Mostly cloudy with chance of showers and slight chance of thunderstorms. Highs in the lower 80s. Chance of precipitation 50 percent.

Ag Weather Center, Department of Biosystems & Agricultural Engineering, University of Kentucky